Time,TemperatureF,DewpointF,PressureIn,WindDirection,WindDirectionDegrees,WindSpeedMPH,WindSpeedGustMPH,Humidity,HourlyPrecipIn,Conditions,Clouds,dailyrainin,SoftwareType,DateUTC
2013-10-08 00:00:00,59.0,54.0,-100.00,North,-999,3.0,6.0,84,-99.99,,,-99.99,,2013-10-08 04:00:00,
2013-10-08 00:23:00,59.0,54.0,-100.00,North,-999,3.0,6.0,84,-99.99,,,-99.99,,2013-10-08 04:23:00,
2013-10-08 00:34:00,59.0,54.0,-100.00,North,-999,3.0,6.0,84,-99.99,,,-99.99,,2013-10-08 04:34:00,
2013-10-08 00:43:00,59.0,54.0,-100.00,North,-999,3.0,6.0,84,-99.99,,,-99.99,,2013-10-08 04:43:00,
2013-10-08 00:53:00,59.0,54.0,-100.00,North,-999,3.0,6.0,84,-99.99,,,-99.99,,2013-10-08 04:53:00,
2013-10-08 01:00:00,57.0,48.0,-100.00,North,-999,3.0,8.0,71,-99.99,,,-99.99,,2013-10-08 05:00:00,
2013-10-08 01:22:00,57.0,48.0,-100.00,North,-999,3.0,8.0,71,-99.99,,,-99.99,,2013-10-08 05:22:00,
2013-10-08 01:34:00,57.0,48.0,-100.00,North,-999,3.0,8.0,71,-99.99,,,-99.99,,2013-10-08 05:34:00,
2013-10-08 01:42:00,57.0,48.0,-100.00,North,-999,3.0,8.0,71,-99.99,,,-99.99,,2013-10-08 05:42:00,
2013-10-08 01:53:00,57.0,48.0,-100.00,North,-999,3.0,8.0,71,-99.99,,,-99.99,,2013-10-08 05:53:00,
2013-10-08 02:00:00,56.0,48.0,-100.00,North,-999,2.0,8.0,75,-99.99,,,-99.99,,2013-10-08 06:00:00,
2013-10-08 02:22:00,56.0,48.0,-100.00,North,-999,2.0,8.0,75,-99.99,,,-99.99,,2013-10-08 06:22:00,
2013-10-08 02:32:00,56.0,48.0,-100.00,North,-999,2.0,8.0,75,-99.99,,,-99.99,,2013-10-08 06:32:00,
2013-10-08 02:42:00,56.0,48.0,-100.00,North,-999,2.0,8.0,75,-99.99,,,-99.99,,2013-10-08 06:42:00,
2013-10-08 02:52:00,56.0,48.0,-100.00,North,-999,2.0,8.0,75,-99.99,,,-99.99,,2013-10-08 06:52:00,
2013-10-08 03:00:00,52.0,48.0,-100.00,North,-999,2.0,5.0,85,-99.99,,,-99.99,,2013-10-08 07:00:00,
2013-10-08 03:42:00,52.0,48.0,-100.00,North,-999,2.0,5.0,85,-99.99,,,-99.99,,2013-10-08 07:42:00,
2013-10-08 03:52:00,52.0,48.0,-100.00,North,-999,2.0,5.0,85,-99.99,,,-99.99,,2013-10-08 07:52:00,
2013-10-08 04:00:00,51.0,47.0,-100.00,North,-999,1.0,3.0,86,-99.99,,,-99.99,,2013-10-08 08:00:00,
2013-10-08 04:22:00,51.0,47.0,-100.00,North,-999,1.0,3.0,86,-99.99,,,-99.99,,2013-10-08 08:22:00,
2013-10-08 04:32:00,51.0,47.0,-100.00,North,-999,1.0,3.0,86,-99.99,,,-99.99,,2013-10-08 08:32:00,
2013-10-08 04:42:00,51.0,47.0,-100.00,North,-999,1.0,3.0,86,-99.99,,,-99.99,,2013-10-08 08:42:00,
2013-10-08 04:52:00,51.0,47.0,-100.00,North,-999,1.0,3.0,86,-99.99,,,-99.99,,2013-10-08 08:52:00,
2013-10-08 05:00:00,50.0,46.0,-100.00,North,-999,1.0,4.0,85,-99.99,,,-99.99,,2013-10-08 09:00:00,
2013-10-08 05:43:00,50.0,46.0,-100.00,North,-999,1.0,4.0,85,-99.99,,,-99.99,,2013-10-08 09:43:00,
2013-10-08 05:53:00,50.0,46.0,-100.00,North,-999,1.0,4.0,85,-99.99,,,-99.99,,2013-10-08 09:53:00,
2013-10-08 06:00:00,49.0,45.0,-100.00,North,-999,1.0,4.0,88,-99.99,,,-99.99,,2013-10-08 10:00:00,
2013-10-08 06:42:00,49.0,45.0,-100.00,North,-999,1.0,4.0,88,-99.99,,,-99.99,,2013-10-08 10:42:00,
2013-10-08 06:53:00,49.0,45.0,-100.00,North,-999,1.0,4.0,88,-99.99,,,-99.99,,2013-10-08 10:53:00,
2013-10-08 07:00:00,47.0,44.0,-100.00,North,-999,2.0,5.0,88,-99.99,,,-99.99,,2013-10-08 11:00:00,
2013-10-08 07:42:00,47.0,44.0,-100.00,North,-999,2.0,5.0,88,-99.99,,,-99.99,,2013-10-08 11:42:00,
2013-10-08 07:52:00,47.0,44.0,-100.00,North,-999,2.0,5.0,88,-99.99,,,-99.99,,2013-10-08 11:52:00,
2013-10-08 08:00:00,52.0,45.0,-100.00,North,-999,2.0,4.0,76,-99.99,,,-99.99,,2013-10-08 12:00:00,
2013-10-08 08:42:00,52.0,45.0,-100.00,North,-999,2.0,4.0,76,-99.99,,,-99.99,,2013-10-08 12:42:00,
2013-10-08 08:52:00,52.0,45.0,-100.00,North,-999,2.0,4.0,76,-99.99,,,-99.99,,2013-10-08 12:52:00,
2013-10-08 09:00:00,55.0,43.0,-100.00,North,-999,3.0,8.0,61,-99.99,,,-99.99,,2013-10-08 13:00:00,
2013-10-08 09:42:00,55.0,43.0,-100.00,North,-999,3.0,8.0,61,-99.99,,,-99.99,,2013-10-08 13:42:00,
2013-10-08 09:52:00,55.0,43.0,-100.00,North,-999,3.0,8.0,61,-99.99,,,-99.99,,2013-10-08 13:52:00,
2013-10-08 10:00:00,57.0,42.0,-100.00,North,-999,4.0,10.0,56,-99.99,,,-99.99,,2013-10-08 14:00:00,
2013-10-08 10:42:00,57.0,42.0,-100.00,North,-999,4.0,10.0,56,-99.99,,,-99.99,,2013-10-08 14:42:00,
2013-10-08 10:52:00,57.0,42.0,-100.00,North,-999,4.0,10.0,56,-99.99,,,-99.99,,2013-10-08 14:52:00,
2013-10-08 11:00:00,58.0,42.0,-100.00,North,-999,4.0,13.0,53,-99.99,,,-99.99,,2013-10-08 15:00:00,
2013-10-08 11:44:00,58.0,42.0,-100.00,North,-999,4.0,13.0,53,-99.99,,,-99.99,,2013-10-08 15:44:00,
2013-10-08 11:53:00,58.0,42.0,-100.00,North,-999,4.0,13.0,53,-99.99,,,-99.99,,2013-10-08 15:53:00,
2013-10-08 12:00:00,60.0,40.0,-100.00,North,-999,4.0,10.0,47,-99.99,,,-99.99,,2013-10-08 16:00:00,
2013-10-08 12:42:00,60.0,40.0,-100.00,North,-999,4.0,10.0,47,-99.99,,,-99.99,,2013-10-08 16:42:00,
2013-10-08 12:53:00,60.0,40.0,-100.00,North,-999,4.0,10.0,47,-99.99,,,-99.99,,2013-10-08 16:53:00,
2013-10-08 13:00:00,61.0,38.0,-100.00,North,-999,5.0,12.0,43,-99.99,,,-99.99,,2013-10-08 17:00:00,
2013-10-08 13:23:00,61.0,38.0,-100.00,North,-999,5.0,12.0,43,-99.99,,,-99.99,,2013-10-08 17:23:00,
2013-10-08 13:33:00,61.0,38.0,-100.00,North,-999,5.0,12.0,43,-99.99,,,-99.99,,2013-10-08 17:33:00,
2013-10-08 13:43:00,61.0,38.0,-100.00,North,-999,5.0,12.0,43,-99.99,,,-99.99,,2013-10-08 17:43:00,
2013-10-08 13:52:00,61.0,38.0,-100.00,North,-999,5.0,12.0,43,-99.99,,,-99.99,,2013-10-08 17:52:00,
2013-10-08 14:00:00,62.0,39.0,-100.00,North,-999,4.0,11.0,42,-99.99,,,-99.99,,2013-10-08 18:00:00,
2013-10-08 14:42:00,62.0,39.0,-100.00,North,-999,4.0,11.0,42,-99.99,,,-99.99,,2013-10-08 18:42:00,
2013-10-08 14:53:00,62.0,39.0,-100.00,North,-999,4.0,11.0,42,-99.99,,,-99.99,,2013-10-08 18:53:00,
2013-10-08 15:00:00,63.0,38.0,-100.00,North,-999,4.0,10.0,40,-99.99,,,-99.99,,2013-10-08 19:00:00,
2013-10-08 15:43:00,63.0,38.0,-100.00,North,-999,4.0,10.0,40,-99.99,,,-99.99,,2013-10-08 19:43:00,
2013-10-08 15:53:00,63.0,38.0,-100.00,North,-999,4.0,10.0,40,-99.99,,,-99.99,,2013-10-08 19:53:00,
2013-10-08 16:00:00,61.0,36.0,-100.00,North,-999,4.0,12.0,38,-99.99,,,-99.99,,2013-10-08 20:00:00,
2013-10-08 16:42:00,61.0,36.0,-100.00,North,-999,4.0,12.0,38,-99.99,,,-99.99,,2013-10-08 20:42:00,
2013-10-08 16:52:00,61.0,36.0,-100.00,North,-999,4.0,12.0,38,-99.99,,,-99.99,,2013-10-08 20:52:00,
2013-10-08 17:00:00,59.0,37.0,-100.00,North,-999,3.0,10.0,43,-99.99,,,-99.99,,2013-10-08 21:00:00,
2013-10-08 17:44:00,59.0,37.0,-100.00,North,-999,3.0,10.0,43,-99.99,,,-99.99,,2013-10-08 21:44:00,
2013-10-08 17:54:00,59.0,37.0,-100.00,North,-999,3.0,10.0,43,-99.99,,,-99.99,,2013-10-08 21:54:00,
2013-10-08 18:00:00,54.0,43.0,-100.00,North,-999,2.0,6.0,64,-99.99,,,-99.99,,2013-10-08 22:00:00,
2013-10-08 18:49:00,54.0,43.0,-100.00,North,-999,2.0,6.0,64,-99.99,,,-99.99,,2013-10-08 22:49:00,
2013-10-08 18:59:00,54.0,43.0,-100.00,North,-999,2.0,6.0,64,-99.99,,,-99.99,,2013-10-08 22:59:00,
2013-10-08 19:00:00,48.0,43.0,-100.00,North,-999,2.0,4.0,81,-99.99,,,-99.99,,2013-10-08 23:00:00,
2013-10-08 19:23:00,48.0,43.0,-100.00,North,-999,2.0,4.0,81,-99.99,,,-99.99,,2013-10-08 23:23:00,
2013-10-08 19:34:00,48.0,43.0,-100.00,North,-999,2.0,4.0,81,-99.99,,,-99.99,,2013-10-08 23:34:00,
2013-10-08 19:42:00,48.0,43.0,-100.00,North,-999,2.0,4.0,81,-99.99,,,-99.99,,2013-10-08 23:42:00,
2013-10-08 19:53:00,48.0,43.0,-100.00,North,-999,2.0,4.0,81,-99.99,,,-99.99,,2013-10-08 23:53:00,
2013-10-08 20:00:00,45.0,42.0,-100.00,North,-999,2.0,4.0,89,-99.99,,,-99.99,,2013-10-09 00:00:00,
2013-10-08 20:43:00,45.0,42.0,-100.00,North,-999,2.0,4.0,89,-99.99,,,-99.99,,2013-10-09 00:43:00,
2013-10-08 20:52:00,45.0,42.0,-100.00,North,-999,2.0,4.0,89,-99.99,,,-99.99,,2013-10-09 00:52:00,
2013-10-08 21:00:00,43.0,41.0,-100.00,North,-999,1.0,3.0,93,-99.99,,,-99.99,,2013-10-09 01:00:00,
2013-10-08 21:43:00,43.0,41.0,-100.00,North,-999,1.0,3.0,93,-99.99,,,-99.99,,2013-10-09 01:43:00,
2013-10-08 21:52:00,43.0,41.0,-100.00,North,-999,1.0,3.0,93,-99.99,,,-99.99,,2013-10-09 01:52:00,
2013-10-08 22:00:00,43.0,42.0,-100.00,North,-999,1.0,3.0,93,-99.99,,,-99.99,,2013-10-09 02:00:00,
2013-10-08 22:42:00,43.0,42.0,-100.00,North,-999,1.0,3.0,93,-99.99,,,-99.99,,2013-10-09 02:42:00,
2013-10-08 22:52:00,43.0,42.0,-100.00,North,-999,1.0,3.0,93,-99.99,,,-99.99,,2013-10-09 02:52:00,
2013-10-08 23:00:00,42.0,40.0,-100.00,North,-999,2.0,3.0,93,-99.99,,,-99.99,,2013-10-09 03:00:00,
2013-10-08 23:23:00,42.0,40.0,-100.00,North,-999,2.0,3.0,93,-99.99,,,-99.99,,2013-10-09 03:23:00,
2013-10-08 23:34:00,42.0,40.0,-100.00,North,-999,2.0,3.0,93,-99.99,,,-99.99,,2013-10-09 03:34:00,
2013-10-08 23:45:00,42.0,40.0,-100.00,North,-999,2.0,3.0,93,-99.99,,,-99.99,,2013-10-09 03:45:00,
2013-10-08 23:54:00,42.0,40.0,-100.00,North,-999,2.0,3.0,93,-99.99,,,-99.99,,2013-10-09 03:54:00,